LiveATC.Net - Listen to live air traffic control over the Internet!


ICAO: KENW  IATA: ENW   Airport: Kenosha Regional Airport
City: Kenosha   State/Province: Wisconsin
Country: United States   Continent: North America
KENW METAR Weather: KENW 181953Z 23010KT 10SM SCT060 29/13 A2999 RMK AO2 SLP152 T02940128
KENW ADS-B Flight Tracking (ADSBExchange)
KENW Flight Activity (FlightAware)
KENW Airport Info   (iFlightPlanner)
KENW VFR Sectional Chart   (iFlightPlanner) 
KENW IFR Low Altitude Chart   (iFlightPlanner) 
KENW IFR High Altitude Chart   (iFlightPlanner) 

KENW Ground/Tower
Feed Status: UP   Listeners: 0
Listen in your browser - HTML5 player (in browser, HTML5)
Click here to listen with your own player (launches your MP3 player)
Archive Access: KENW Ground/Tower
FacilityFrequency
Kenosha Ground121.875
Kenosha Tower118.600

NOTICE

Unauthorized use prohibited. See LiveATC.net Terms of Service


Airport/ARTCC Code
Frequency Search
(e.g., 124.400, 128.75)
Site-wide search
 


Browse Feeds
Top 50 Feeds
HF Oceanic Feeds
Coverage Map
Bad Weather Areas

LiveATC FAQ
Offer LiveATC feed
Contact LiveATC.net
Press Inquiries

LiveATC on iPhone
LiveATC on Android

LiveATC Mobile
(Mobile browser)

ATC Audio Archives
Interesting Recordings

LiveATC Forums


Home Page
About LiveATC.net


Terms of Use
Privacy Policy

AIRMETs/SIGMETs

FAA Airport Status
NAS Status
Arrival Demand


Server Software By:
Icecast.org
Liquidsoap